Nos coordonnées

Nous sommes à votre écoute du lundi au dimanche de 10:00 à 19:00 au :

+32 (0)495 19 89 53

 

Adresse d'exploitation Adresse de facturation
Chaussée de Nivelles, 629
6230 Buzet
Belgique
Kouter 107/2
9000 Gent
Belgique

contact @ blackhelicopters.be (n'oubliez pas de supprimer les espaces)


Nous retrouver

Il est très fortement conseillé de nous appeler avant de venir sur le terrain, nous pouvons être en mission ou en vol!

 

La carte ci-dessous est interactive, cherchez vos itinéraires, déplacez la pour vous retrouver.

News

Votre panier

Le panier est vide

Météo Charleroi

METAR
EBCI 090250Z 20011KT CAVOK 01/M00 Q1003 NOSIG =
EBCI 082310Z 0900/1006 20009KT 9999 FEW030 BECMG 0905/0907 SCT004 BKN008 PROB40 TEMPO 0906/0915 3500 -RADZ BKN004 PROB30 TEMPO 0906/0910 2500 -RASN BKN003 BECMG 0915/0918 SCT008 BKN014 BECMG 1000/1003 BKN008 PROB40 TEMPO 1002/1006 16015G25KT 4000 RA
TAF
EBCI 082310Z 0900/1006 20009KT 9999 FEW030 BECMG 0905/0907 SCT004 BKN008 PROB40 TEMPO 0906/0915 3500 -RADZ BKN004 PROB30 TEMPO 0906/0910 2500 -RASN BKN003 BECMG 0915/0918 SCT008 BKN014 BECMG 1000/1003 BKN008 PROB40 TEMPO 1002/1006 16015G25KT 4000 RA =
Lever / Coucher : 07:31 / 15:39 UTC (Buzet 2021-12-09)